| time (UTC) | temp C | wind direction | speed KPH | gust KPH | rain 1hr cm | rain 24hr cm | rain mn cm | humidity % | barometer mb |
| 20260503072130 | 18 | 50 | 3.2 | 6.4 | 0.00 | 0.00 | 0.00 | 60 | 1019.7 |
| 20260503071119 | 17 | 49 | 3.2 | 9.7 | 0.00 | 0.00 | 0.00 | 62 | 1019.7 |
| 20260503070126 | 17 | 50 | 0.0 | 9.7 | 0.00 | 0.00 | 0.00 | 63 | 1019.7 |
| 20260503060121 | 14 | 30 | 0.0 | 6.4 | 0.00 | 0.00 | 0.00 | 68 | 1019.7 |
| 20260503054138 | 14 | 65 | 1.6 | 6.4 | 0.00 | 0.00 | 0.00 | 67 | 1019.7 |
| 20260503053122 | 14 | 57 | 3.2 | 6.4 | 0.00 | 0.00 | 0.00 | 67 | 1019.7 |
| 20260503052149 | 14 | 221 | 1.6 | 8.0 | 0.00 | 0.00 | 0.00 | 67 | 1019.6 |
| 20260503051155 | 14 | 72 | 1.6 | 6.4 | 0.00 | 0.00 | 0.00 | 66 | 1019.5 |
| 20260503050142 | 14 | 90 | 1.6 | 4.8 | 0.00 | 0.00 | 0.00 | 66 | 1019.5 |
| 20260503045125 | 14 | 104 | 1.6 | 4.8 | 0.00 | 0.00 | 0.00 | 66 | 1019.6 |
| 20260503044150 | 13 | 184 | 3.2 | 8.0 | 0.00 | 0.00 | 0.00 | 67 | 1019.6 |
| 20260503043134 | 13 | 229 | 0.0 | 3.2 | 0.00 | 0.00 | 0.00 | 69 | 1019.6 |
| 20260503042118 | 13 | 229 | 0.0 | 4.8 | 0.00 | 0.00 | 0.00 | 69 | 1019.6 |
| 20260503041128 | 13 | 66 | 0.0 | 3.2 | 0.00 | 0.00 | 0.00 | 68 | 1019.6 |
| 20260503040154 | 13 | 236 | 0.0 | 4.8 | 0.00 | 0.00 | 0.00 | 69 | 1019.6 |
| 20260503035119 | 13 | 238 | 0.0 | 3.2 | 0.00 | 0.00 | 0.00 | 70 | 1019.7 |
| 20260503034126 | 13 | 225 | 0.0 | 6.4 | 0.00 | 0.00 | 0.00 | 70 | 1019.7 |
| 20260503033117 | 13 | 103 | 1.6 | 3.2 | 0.00 | 0.00 | 0.00 | 68 | 1019.7 |
| 20260503032140 | 14 | 9 | 1.6 | 4.8 | 0.00 | 0.00 | 0.00 | 67 | 1019.8 |
| 20260503031124 | 14 | 185 | 1.6 | 6.4 | 0.00 | 0.00 | 0.00 | 67 | 1019.8 |
| 20260503030130 | 14 | 151 | 1.6 | 8.0 | 0.00 | 0.00 | 0.00 | 67 | 1019.8 |
| 20260503025120 | 14 | 186 | 3.2 | 6.4 | 0.00 | 0.00 | 0.00 | 67 | 1019.7 |
| 20260503024126 | 14 | 78 | 1.6 | 4.8 | 0.00 | 0.00 | 0.00 | 67 | 1019.8 |
| 20260503023133 | 14 | 118 | 1.6 | 8.0 | 0.00 | 0.00 | 0.00 | 67 | 1019.8 |
| 20260503022138 | 14 | 306 | 1.6 | 6.4 | 0.00 | 0.00 | 0.00 | 66 | 1020.0 |
| 20260503021145 | 15 | 204 | 1.6 | 6.4 | 0.00 | 0.00 | 0.00 | 66 | 1020.0 |
| 20260503020133 | 14 | 117 | 3.2 | 11.3 | 0.00 | 0.00 | 0.00 | 66 | 1020.1 |
| 20260503015120 | 14 | 69 | 1.6 | 6.4 | 0.00 | 0.00 | 0.00 | 67 | 1020.1 |
| 20260503014126 | 15 | 134 | 0.0 | 3.2 | 0.00 | 0.00 | 0.00 | 66 | 1020.1 |
| 20260503013116 | 15 | 146 | 1.6 | 6.4 | 0.00 | 0.00 | 0.00 | 66 | 1020.1 |
| 20260503012123 | 15 | 355 | 1.6 | 8.0 | 0.00 | 0.00 | 0.00 | 65 | 1020.3 |
| 20260503011129 | 15 | 95 | 0.0 | 4.8 | 0.00 | 0.00 | 0.00 | 66 | 1020.3 |
| 20260503010134 | 15 | 113 | 1.6 | 8.0 | 0.00 | 0.00 | 0.00 | 66 | 1020.4 |
| 20260503005125 | 15 | 237 | 1.6 | 6.4 | 0.00 | 0.00 | 0.00 | 66 | 1020.4 |
| 20260503004132 | 15 | 169 | 1.6 | 4.8 | 0.00 | 0.00 | 0.00 | 67 | 1020.5 |
| 20260503003119 | 15 | 173 | 0.0 | 8.0 | 0.00 | 0.00 | 0.00 | 67 | 1020.6 |
| 20260503002143 | 15 | 136 | 1.6 | 4.8 | 0.00 | 0.00 | 0.00 | 67 | 1020.7 |
| 20260503001126 | 14 | 283 | 0.0 | 3.2 | 0.00 | 0.00 | 0.00 | 68 | 1020.9 |
| 20260503000116 | 13 | 178 | 3.2 | 8.0 | 0.00 | 0.00 | 0.00 | 69 | 1020.9 |
| 20260502235118 | 13 | 151 | 1.6 | 8.0 | 0.00 | 0.00 | 0.00 | 68 | 1021.0 |
| 20260502234125 | 14 | 150 | 0.0 | 3.2 | 0.00 | 0.00 | 0.00 | 68 | 1021.1 |
| 20260502233116 | 14 | 150 | 0.0 | 3.2 | 0.00 | 0.00 | 0.00 | 67 | 1021.1 |
| 20260502232121 | 14 | 150 | 0.0 | 3.2 | 0.00 | 0.00 | 0.00 | 67 | 1021.2 |
| 20260502231127 | 14 | 150 | 0.0 | 4.8 | 0.00 | 0.00 | 0.00 | 67 | 1021.3 |
| 20260502230153 | 14 | 151 | 0.0 | 1.6 | 0.00 | 0.00 | 0.00 | 67 | 1021.3 |
| 20260502225116 | 14 | 151 | 1.6 | 4.8 | 0.00 | 0.00 | 0.00 | 67 | 1021.3 |
| 20260502224128 | 14 | 148 | 0.0 | 4.8 | 0.00 | 0.00 | 0.00 | 69 | 1021.3 |
| 20260502223134 | 13 | 149 | 0.0 | 1.6 | 0.00 | 0.00 | 0.00 | 69 | 1021.3 |
| 20260502222140 | 13 | 149 | 1.6 | 4.8 | 0.00 | 0.00 | 0.00 | 68 | 1021.4 |
| 20260502221127 | 13 | 149 | 0.0 | 4.8 | 0.00 | 0.00 | 0.00 | 69 | 1021.4 |
| 20260502220127 | 13 | 149 | 1.6 | 4.8 | 0.00 | 0.00 | 0.00 | 69 | 1021.4 |
| 20260502215131 | 13 | 149 | 1.6 | 3.2 | 0.00 | 0.00 | 0.00 | 69 | 1021.4 |
| 20260502214133 | 14 | 149 | 0.0 | 8.0 | 0.00 | 0.00 | 0.00 | 68 | 1021.5 |
| 20260502213135 | 14 | 148 | 1.6 | 4.8 | 0.00 | 0.00 | 0.00 | 69 | 1021.4 |
| 20260502212123 | 14 | 148 | 1.6 | 8.0 | 0.00 | 0.00 | 0.00 | 68 | 1021.3 |
| 20260502211126 | 14 | 148 | 1.6 | 4.8 | 0.00 | 0.00 | 0.00 | 67 | 1021.4 |
| 20260502210125 | 14 | 147 | 1.6 | 4.8 | 0.00 | 0.00 | 0.00 | 67 | 1021.5 |
| 20260502205124 | 14 | 147 | 1.6 | 4.8 | 0.00 | 0.00 | 0.00 | 67 | 1021.5 |
| 20260502204121 | 15 | 146 | 0.0 | 4.8 | 0.00 | 0.00 | 0.00 | 66 | 1021.6 |
| 20260502203128 | 15 | 145 | 1.6 | 3.2 | 0.00 | 0.00 | 0.00 | 64 | 1021.6 |
| 20260502202133 | 15 | 145 | 0.0 | 3.2 | 0.00 | 0.00 | 0.00 | 62 | 1021.6 |
| 20260502201137 | 15 | 145 | 0.0 | 1.6 | 0.00 | 0.00 | 0.00 | 62 | 1021.6 |
| 20260502200141 | 15 | 145 | 0.0 | 0.0 | 0.00 | 0.00 | 0.00 | 59 | 1021.5 |
| 20260502195140 | 15 | 145 | 0.0 | 1.6 | 0.00 | 0.00 | 0.00 | 61 | 1021.5 |
| 20260502194120 | 15 | 145 | 0.0 | 3.2 | 0.00 | 0.00 | 0.00 | 60 | 1021.3 |
| 20260502193143 | 15 | 145 | 0.0 | 3.2 | 0.00 | 0.00 | 0.00 | 61 | 1021.3 |
| 20260502192126 | 16 | 145 | 0.0 | 3.2 | 0.00 | 0.00 | 0.00 | 61 | 1021.2 |
| 20260502191127 | 16 | 145 | 1.6 | 3.2 | 0.00 | 0.00 | 0.00 | 59 | 1021.2 |
| 20260502190136 | 16 | 145 | 0.0 | 3.2 | 0.00 | 0.00 | 0.00 | 60 | 1021.1 |
| 20260502185136 | 17 | 145 | 0.0 | 3.2 | 0.00 | 0.00 | 0.00 | 59 | 1021.0 |
| 20260502184138 | 17 | 143 | 1.6 | 4.8 | 0.00 | 0.00 | 0.00 | 58 | 1021.0 |
| 20260502183142 | 17 | 142 | 0.0 | 3.2 | 0.00 | 0.00 | 0.00 | 58 | 1021.0 |
| 20260502182128 | 18 | 142 | 1.6 | 3.2 | 0.00 | 0.00 | 0.00 | 54 | 1020.9 |
| 20260502181143 | 18 | 142 | 0.0 | 1.6 | 0.00 | 0.00 | 0.00 | 55 | 1020.8 |
| 20260502180126 | 19 | 142 | 0.0 | 1.6 | 0.00 | 0.00 | 0.00 | 53 | 1020.8 |
| 20260502170127 | 21 | 102 | 1.6 | 4.8 | 0.00 | 0.00 | 0.00 | 42 | 1020.9 |
| 20260502164138 | 22 | 142 | 0.0 | 4.8 | 0.00 | 0.00 | 0.00 | 40 | 1020.9 |
| 20260502163135 | 22 | 252 | 0.0 | 6.4 | 0.00 | 0.00 | 0.00 | 40 | 1021.0 |
| 20260502162133 | 22 | 154 | 0.0 | 8.0 | 0.00 | 0.00 | 0.00 | 40 | 1021.1 |
| 20260502161120 | 22 | 105 | 3.2 | 6.4 | 0.00 | 0.00 | 0.00 | 39 | 1021.2 |
| 20260502160125 | 22 | 117 | 1.6 | 6.4 | 0.00 | 0.00 | 0.00 | 41 | 1021.2 |
| 20260502152134 | 22 | 111 | 1.6 | 8.0 | 0.00 | 0.00 | 0.00 | 41 | 1021.6 |
| 20260502151135 | 22 | 49 | 1.6 | 6.4 | 0.00 | 0.00 | 0.00 | 41 | 1021.6 |
| 20260502150140 | 22 | 225 | 0.0 | 9.7 | 0.00 | 0.00 | 0.00 | 40 | 1021.7 |
| 20260502140121 | 22 | 69 | 1.6 | 6.4 | 0.00 | 0.00 | 0.00 | 40 | 1022.5 |
| 20260502130132 | 22 | 30 | 3.2 | 8.0 | 0.00 | 0.00 | 0.00 | 45 | 1023.3 |
| 20260502123123 | 22 | 103 | 1.6 | 9.7 | 0.00 | 0.00 | 0.00 | 44 | 1023.7 |
| 20260502122128 | 21 | 49 | 1.6 | 8.0 | 0.00 | 0.00 | 0.00 | 46 | 1023.7 |
| 20260502121130 | 21 | 101 | 1.6 | 14.5 | 0.00 | 0.00 | 0.00 | 48 | 1023.9 |
| 20260502120130 | 21 | 136 | 3.2 | 11.3 | 0.00 | 0.00 | 0.00 | 43 | 1024.0 |
| 20260502115139 | 21 | 113 | 3.2 | 6.4 | 0.00 | 0.00 | 0.00 | 45 | 1024.2 |
| 20260502114122 | 21 | 101 | 3.2 | 11.3 | 0.00 | 0.00 | 0.00 | 46 | 1024.4 |
| 20260502113124 | 21 | 46 | 3.2 | 11.3 | 0.00 | 0.00 | 0.00 | 48 | 1024.4 |
| 20260502112126 | 21 | 137 | 3.2 | 9.7 | 0.00 | 0.00 | 0.00 | 46 | 1024.6 |
| 20260502111128 | 21 | 34 | 3.2 | 11.3 | 0.00 | 0.00 | 0.00 | 53 | 1024.8 |
| 20260502110150 | 21 | 56 | 1.6 | 8.0 | 0.00 | 0.00 | 0.00 | 50 | 1024.9 |
| 20260502105132 | 20 | 209 | 0.0 | 9.7 | 0.00 | 0.00 | 0.00 | 46 | 1025.1 |
| 20260502104135 | 20 | 133 | 4.8 | 12.9 | 0.00 | 0.00 | 0.00 | 46 | 1025.2 |
| 20260502103119 | 20 | 78 | 3.2 | 8.0 | 0.00 | 0.00 | 0.00 | 48 | 1025.2 |
| 20260502102126 | 20 | 105 | 1.6 | 12.9 | 0.00 | 0.00 | 0.00 | 47 | 1025.4 |
| 20260502101131 | 20 | 159 | 0.0 | 8.0 | 0.00 | 0.00 | 0.00 | 47 | 1025.6 |
| 20260502100155 | 20 | 343 | 1.6 | 12.9 | 0.00 | 0.00 | 0.00 | 48 | 1025.7 |
| 20260502091134 | 19 | 86 | 1.6 | 8.0 | 0.00 | 0.00 | 0.00 | 48 | 1026.2 |
| 20260502090122 | 19 | 139 | 3.2 | 8.0 | 0.00 | 0.00 | 0.00 | 51 | 1026.4 |